Pagina principale
METAR-TAF:

METAR-TAF

Aeroporti :

Gobabis, Namibia

latitudine: 22-30-20S, longitudine: 18-58-30E, altezza: 1468 m

Osservazione

Il bollettino è stato emesso 53 minuti fa, alle 22:00 UTC
Vento 1 kt da nord-ovest
Temperature 8°C
Umidità 57%
Pressione 1029 hPa

METAR: FYGB 162200Z AUTO 31001KT //// // ////// 08/M00 Q1029

Ora: 23:53 (22:53 UTC)


TAF: mancante

Osservazioni e previsioni meteorologiche di più di 4000 aeroporti (messaggi METAR e TAF).

Le stazioni disponibili sono rappresentate dai dischi gialli e rossi sulla carta.

Puntare il mouse per vedere il nome della stazione.

Clicca sopra per visualizzare le osservazioni e previsioni meteorologiche.

Per cambiare la mappa : fare clic sui pulsanti verdi con una croce nera per ingrandire, il pulsante verde con un trattino per diminuire, o sulla freccia verde per le mappe adiacenti.


METAR-TAF: